Flag for U.S.A. Weather past 2 weeks in Unalaska, Alaska, U.S.A.

Now
55 °F

Overcast.


Feels Like: 53 °F
Forecast: 52 / 56 °F
Wind: 8 mph from Southeast

Location: Dutch Harbor

Current Time: Aug 23, 2014 at 3:55:55 AM

Latest Report: Aug 23, 2014 at 2:56 AM


Visibility: 10 mi

Pressure: 29.83 "Hg

Humidity: 77%

Dew point: 48 °F

Location of UnalaskaLocation

Historic Weather in Unalaska — Graph

°F

Unalaska temperature yesterday

Maximum temperature yesterday: 58 °F (at 5:56 PM)
Minimum temperature yesterday: 55 °F (at 1:56 AM)
Average temperature yesterday: 56 °F

Past Weeks' High & Low Weather Summary

 TemperatureHumidityPressure
High64 °F (Aug 11, 2:56 PM)97% (Aug 19, 9:56 PM)30.16 "Hg (Aug 19, 9:56 PM)
Low46 °F (Aug 18, 7:56 AM)60% (Aug 11, 4:56 PM)29.09 "Hg (Aug 15, 1:58 PM)
Average54 °F82%29.67 "Hg
* Reported Aug 8 1:56 AM — Aug 23 1:56 AM, Unalaska, Weather by CustomWeather, © 2014

Note: Actual official high and low records may vary slightly from our data, if they occured in-between our weather recording intervals... More about our weather records

Advertising

Unalaska weather history for previous 24 hours

 ConditionsComfort  
Time TempWeatherWind HumidityBarometerVisibility
1:56 AM
Aug 23
56 °FLight rain. Overcast.7 mph75%29.85 "Hg10 mi
12:56 AM56 °FOvercast.13 mph75%29.86 "Hg10 mi
11:56 PM
Aug 22
56 °FLight rain. Overcast.9 mph75%29.88 "Hg10 mi
10:56 PM56 °FMostly cloudy.10 mph75%29.88 "Hg10 mi
9:56 PM57 °FOvercast.15 mph69%29.90 "Hg10 mi
8:56 PM57 °FMostly cloudy.16 mph74%29.90 "Hg10 mi
7:56 PM57 °FMore clouds than sun.15 mph72%29.92 "Hg10 mi
6:56 PM57 °FMore clouds than sun.15 mph74%29.94 "Hg10 mi
5:56 PM58 °FMore clouds than sun.16 mph72%29.94 "Hg10 mi
4:56 PM57 °FMore clouds than sun.13 mph74%29.97 "Hg10 mi
3:56 PM57 °FMore clouds than sun.10 mph78%29.98 "Hg10 mi
3:01 PM55 °FMore clouds than sun.8 mph88%29.98 "Hg10 mi
1:56 PM57 °FMore clouds than sun.16 mph78%29.99 "Hg10 mi
1:03 PM57 °FMore clouds than sun.14 mph77%29.98 "Hg10 mi
12:56 PM57 °FCloudy.9 mph81%29.99 "Hg10 mi
11:56 AM57 °FMore clouds than sun.12 mph78%29.98 "Hg10 mi
10:56 AM56 °FCloudy.12 mph84%29.99 "Hg10 mi
9:56 AM56 °FMostly cloudy.5 mph81%30.00 "Hg10 mi
8:59 AM55 °FLight rain. Cloudy.8 mph88%29.98 "Hg10 mi
7:56 AM55 °FOvercast.3 mph87%29.99 "Hg10 mi
6:56 AM55 °FMostly cloudy.7 mph90%30.00 "Hg10 mi
5:56 AM55 °FMostly cloudy.No wind90%30.00 "Hg10 mi
4:56 AM55 °FLight rain. Mostly cloudy.No wind90%30.01 "Hg7 mi
3:56 AM56 °FOvercast.3 mph87%30.01 "Hg10 mi
Weather by CustomWeather, © 2014

See weather overviewHow to use our weather pages